Regional Weather Roundup
Issued by NWS

Home | Current Version | Previous Version | Graphics & Text | Print | Product List | Glossary On
Versions: 1 2 3 4 5 6 7 8 9 10 11 12 13 14 15 16 17 18 19 20 21 22 23 24 25 26 27 28 29 30 31 32 33 34 35 36 37 38 39 40 41 42 43 44 45 46 47 48 49 50
000
ASUS44 KMEG 201310
RWRTN
TENNESSEE HOURLY STATE WEATHER ROUNDUP
NATIONAL WEATHER SERVICE MEMPHIS TN
800 AM CDT SUN APR 20 2014

TNZ002-004-019-021-049-052-054-088>092-201400-
WEST TENNESSEE

CITY           SKY/WX    TMP DP  RH WIND       PRES   REMARKS
MEMPHIS INTL   PTSUNNY   60  48  64 CALM      30.20R
NWS MEMPHIS      N/A     58 N/A N/A MISG        N/A
JACKSON        SUNNY     54  46  74 CALM      30.22S
DYERSBURG      MOSUNNY   57  43  58 E5        30.23R
UNION CITY     SUNNY     55  48  76 CALM      30.21S
PARIS          SUNNY     58  41  53 SE6       30.23R
LEXINGTON      SUNNY     52  46  82 CALM      30.23R
SILERTON         N/A     62  45  53 SE3         N/A
SAVANNAH       SUNNY     51  50  97 CALM      30.25R
$$

TNZ008-025-027-028-033-062-065-066-201400-
NORTH MIDDLE TENNESSEE

CITY           SKY/WX    TMP DP  RH WIND       PRES   REMARKS
NASHVILLE      MOSUNNY   55  46  71 CALM      30.24R
DICKSON        SUNNY     57  43  58 CALM      30.23R
PORTLAND       SUNNY     52  39  62 CALM      30.23R
CLARKSVILLE    SUNNY     54  45  71 CALM      30.24R
SMYRNA         SUNNY     51  46  83 CALM      30.25R
MURFREESBORO   SUNNY     52  44  74 CALM      30.23R
COOKEVILLE     SUNNY     54  46  76 CALM      30.24S
LIVINGSTON     SUNNY     59  40  49 CALM      30.24R
GALLATIN       SUNNY     53  43  69 CALM      30.24R
CROSSVILLE     SUNNY     55  41  59 CALM      30.26R
$$

TNZ061-075-076-078-094-096-097-201400-
SOUTH MIDDLE TENNESSEE

CITY           SKY/WX    TMP DP  RH WIND       PRES   REMARKS
LEWISBURG      SUNNY     50  44  79 CALM      30.23R
FAYETTEVILLE   SUNNY     56  45  66 SW7       30.24R
TULLAHOMA      SUNNY     54  45  71 CALM      30.25R
WINCHESTER     SUNNY     54  46  76 CALM      30.25R
MCMINNVILLE    SUNNY     52  48  87 CALM      30.24S
COLUMBIA       SUNNY     52  48  87 CALM      30.23R
SHELBYVILLE    SUNNY     54  46  76 CALM      30.25R
$$

TNZ017-018-042-046-047-201400-
NORTHEAST TENNESSEE

CITY           SKY/WX    TMP DP  RH WIND       PRES   REMARKS
TRI CITIES     MOSUNNY   54  40  59 E5        30.29R
ELIZABETHTON   SUNNY     50  39  66 CALM      30.29S
$$

TNZ012-013-036-069-073-074-201400-
CENTRAL EAST TENNESSEE

CITY           SKY/WX    TMP DP  RH WIND       PRES   REMARKS
KNOXVILLE      SUNNY     51  49  92 NE3       30.25S FOG
OAK RIDGE      SUNNY     53  46  77 CALM      30.27S
$$

TNZ083-085-099-201400-
SOUTHEAST TENNESSEE

CITY           SKY/WX    TMP DP  RH WIND       PRES   REMARKS
CHATTANOOGA    MOSUNNY   52  47  83 CALM      30.27R
$$

SKY/WX REPORTED AS FAIR MEANS FEW OR NO CLOUDS BELOW
12 THOUSAND FEET.




USA.gov is the U.S. government's official web portal to all federal, state and local government web resources and services.